Regional Weather Roundup
Issued by NWS Cleveland, OH

Home | Current Version | Previous Version | Graphics & Text | Print | Product List | Glossary On
Versions: 1 2 3 4 5 6 7 8 9 10 11 12 13 14 15 16 17 18 19 20 21 22 23 24 25 26 27 28 29 30 31 32 33 34 35 36 37 38 39 40 41 42 43 44 45 46 47 48 49 50
000
ASUS41 KCLE 142300
RWRCLE
OHIO REGIONAL WEATHER ROUNDUP
NATIONAL WEATHER SERVICE WILMINGTON, OH
700 PM EDT SUN SEP 14 2014

NOTE: "FAIR" INDICATES FEW OR NO CLOUDS BELOW 12,000 FEET WITH NO
SIGNIFICANT WEATHER AND/OR OBSTRUCTIONS TO VISIBILITY.

OHZ001>008-015>018-024>027-034-035-043-044-150000-
   NORTHWEST OHIO

CITY           SKY/WX    TMP DP  RH WIND       PRES   REMARKS
DEFIANCE       CLEAR     64  45  49 SW3       30.21S
FINDLAY        CLEAR     64  45  49 SW5       30.20F
TOLEDO EXPRESS CLEAR     63  43  48 CALM      30.21S
TOLEDO METCALF CLEAR     61  46  57 E8        30.22S
LIMA           CLEAR     64  49  57 CALM      30.21F
$$

OHZ009>014-019>023-028>033-038-089-150000-
   NORTHEAST OHIO

CITY           SKY/WX    TMP DP  RH WIND       PRES   REMARKS
CLE-HOPKINS    PTCLDY    60  46  59 N6        30.24S
CLE-LAKEFRONT  PTCLDY    61  46  57 NW3       30.22S
CUY CO. ARPT   PTCLDY    61  48  63 N6        30.23S
LORAIN-ELYRIA  CLEAR     62  48  60 N8        30.23S
ASHTABULA      PTCLDY    57  46  66 N3        30.24S
AKRON-CANTON   PTCLDY    62  43  49 W5        30.22F
WOOSTER        NOT AVBL
MANSFIELD      CLEAR     63  43  48 CALM      30.22S
YOUNGSTOWN     PTCLDY    60  46  59 SW3       30.22S
$$

OHZ042-051>053-060>062-070>072-077>081-150000-
  SOUTHWEST OHIO

CITY           SKY/WX    TMP DP  RH WIND       PRES   REMARKS
CINC-COVINGTON CLEAR     68  46  45 W5        30.20F
CINC-LUNKEN    CLEAR     68  48  48 CALM      30.20F
HAMILTON       CLEAR     65  52  62 NW3       30.21S
DAYTON         NOT AVBL
WRIGHT-PAT AFB CLEAR     67  47  49 CALM      30.21S
DAYTON GENERAL CLEAR     67  47  48 CALM      30.20S
WILMINGTON     CLEAR     66  46  48 SW3       30.20F
$$

OHZ036-037-039>041-045>050-054>059-063>069-073>076-082>088-150000-
  CENTRAL AND SOUTHEAST OHIO

CITY           SKY/WX    TMP DP  RH WIND       PRES   REMARKS
COLUMBUS       PTCLDY    68  42  38 CALM      30.21S
OSU AIRPORT    CLEAR     64  44  48 W5        30.21S
BOLTON FIELD   CLEAR     66  48  52 CALM      30.22S
RICKENBACK AFB NOT AVBL
NEWARK         CLEAR     63  44  50 CALM      30.22S
MARION         CLEAR     64  43  46 W6        30.22S
LANCASTER      CLEAR     66  46  48 N3        30.22S
ZANESVILLE     CLEAR     63  45  51 NW5       30.22S
NEW PHILLY     PTCLDY    61  47  59 W3        30.23S
$$


USA.gov is the U.S. government's official web portal to all federal, state and local government web resources and services.